Location: Asheville, NC
(35.6000°N, 82.5500°W)
Time: 20:23:07
(UTC-04:00)

DOVE 4 - Pass Details

Date: 17 March 2018
Orbit: 590 x 802 km, 97.7° (Epoch: 24 June)

Event Time Altitude Azimuth Distance (km) Brightness Sun altitude
Rises 04:44:11 0° 36° (NE) 3,249 ? -35.0°
Reaches altitude 10° 04:48:05 10° 66° (ENE) 2,273 ? -34.3°
Maximum altitude 04:50:04 12° 89° (E) 2,091 ? -34.0°
Drops below altitude 10° 04:52:01 10° 113° (ESE) 2,216 ? -33.6°
Sets 04:55:41 0° 143° (SE) 3,075 ? -32.9°
